Location: Unspecified
(0.0000°N, 0.0000°E)
Time: 10:51:39
(UTC+00:00)

Envisat - Pass Details

Date: 29 May 2020
Orbit: 764 x 766 km, 98.1° (Epoch: 30 May)

Event Time Altitude Azimuth Distance (km) Brightness Sun altitude
Rises 18:12:27 0° 176° (S) 3,230 6.0 -3.5°
Reaches altitude 10° 18:14:47 10° 180° (S) 2,302 5.3 -4.0°
Maximum altitude 18:19:46 57° 258° (WSW) 892 3.8 -5.2°
Drops below altitude 10° 18:24:43 10° 336° (NNW) 2,291 6.2 -6.3°
Sets 18:27:03 0° 341° (NNW) 3,214 6.9 -6.8°
